Location: Bremen
(53.0833°N, 8.8000°E)
Time: 14:17:51
(UTC+02:00)

ISS - Pass Details

Date: 27 April 2025
Orbit: 416 x 419 km, 51.6° (Epoch: 14 May)

Event Time Altitude Azimuth Distance (km) Brightness Sun altitude
Exits shadow 05:18:40 - 248° (WSW) 1,658 -1.4 -6.2°
Reaches altitude 10° 05:19:04 10° 247° (WSW) 1,494 -1.6 -6.1°
Maximum altitude 05:22:22 58° 168° (SSE) 495 -3.5 -5.7°
Drops below altitude 10° 05:25:41 10° 88° (E) 1,499 0.1 -5.3°
Sets 05:27:48 0° 85° (E) 2,365 1.4 -5.0°
